Bad Axe, MI

5:31 PM EDT on October 18, 2017 (GMT -0400)
Huron County Memorial

Weather History for KBAX - April, 2014

Change the Weather History Date:

Monday, April 14, 2014

  Actual Average (KP58) Record (KP58)
Temperature  
Mean Temperature 47 °F -  
Max Temperature 64 °F 48 °F 75 °F (2003)
Min Temperature 30 °F 35 °F 30 °F (1997)
Degree Days  
Heating Degree Days 18    
Moisture  
Dew Point 43 °F    
Average Humidity 81    
Maximum Humidity 100    
Minimum Humidity 63    
Precipitation  
Precipitation 0.00 in - - ()
Sea Level Pressure  
Sea Level Pressure 29.57 in    
Wind  
Wind Speed 11 mph (WNW)    
Max Wind Speed 39 mph    
Max Gust Speed 53 mph    
Visibility 8 miles    
Events Rain , Snow    
Averages and records for this station are not official NWS values.
T = Trace of Precipitation, MM = Missing Value Source: NWS Daily Summary

Daily Weather History Graph

Daily Weather History Graph

Search for Another Location

Airport or City:

Trip Planner

Search our weather history database for the weather conditions in past years. The results will help you decide how hot, cold, wet, or windy it might be!

Date:

Astronomy

Apr. 14, 2014 Rise Set
Actual Time 6:50 AM EDT 8:14 PM EDT
Civil Twilight 6:20 AM EDT 8:44 PM EDT
Nautical Twilight 5:44 AM EDT 9:20 PM EDT
Astronomical Twilight 5:06 AM EDT 9:58 PM EDT
Moon 7:51 PM EDT (4/14) 6:23 AM EDT (4/14)
Length of Visible Light 14h 23m
Length of Day
13h 23m
Full, 100% of the Moon is Illuminated
Apr 14
Full
Apr 15
Full
Apr 22
Last Quarter
Apr 29
New
May 6
First Quarter

Hourly Weather History & Observations

Time (EDT) Temp. Windchill Dew Point Humidity Pressure Visibility Wind Dir Wind Speed Gust Speed Precip Events Conditions
12:04 AM 48.2 °F - 48.2 °F 100% 29.65 in 1.5 mi NNE 5.8 mph - N/A   Unknown
12:20 AM 48.2 °F - 48.2 °F 100% 29.63 in 2.5 mi North 6.9 mph - N/A   Unknown
12:40 AM 46.4 °F 44.3 °F 46.4 °F 100% 29.66 in 3.0 mi NNW 4.6 mph - N/A   Unknown
1:04 AM 46.4 °F 44.3 °F 46.4 °F 100% 29.61 in 5.0 mi East 4.6 mph - N/A Rain Light Rain
1:19 AM 46.4 °F - 46.4 °F 100% 29.59 in 5.0 mi Calm Calm - N/A   Mostly Cloudy
1:42 AM 48.2 °F - 46.4 °F 93% 29.57 in 5.0 mi ESE 5.8 mph - N/A   Scattered Clouds
2:00 AM 48.2 °F - 46.4 °F 93% 29.56 in 4.0 mi SE 4.6 mph - N/A   Mostly Cloudy
2:22 AM 48.2 °F - 48.2 °F 100% 29.55 in 5.0 mi SE 4.6 mph - N/A   Overcast
2:39 AM 48.2 °F - 48.2 °F 100% 29.55 in 4.0 mi South 4.6 mph - N/A Rain Light Rain
2:59 AM 50.0 °F - 50.0 °F 100% 29.53 in 3.0 mi SSE 9.2 mph - N/A   Overcast
3:19 AM 55.4 °F - 55.4 °F 100% 29.50 in 10.0 mi South 12.7 mph - N/A Rain Light Rain
3:40 AM 55.4 °F - 53.6 °F 94% 29.50 in 10.0 mi SSW 9.2 mph - N/A Rain Light Rain
4:00 AM 53.6 °F - 51.8 °F 94% 29.49 in 7.0 mi South 6.9 mph - N/A   Overcast
4:20 AM 53.6 °F - 51.8 °F 94% 29.47 in 7.0 mi South 4.6 mph - N/A   Mostly Cloudy
4:41 AM 53.6 °F - 51.8 °F 94% 29.47 in 7.0 mi South 3.5 mph - N/A   Overcast
4:59 AM 53.6 °F - 51.8 °F 94% 29.45 in 7.0 mi Calm Calm - N/A   Overcast
5:21 AM 53.6 °F - 51.8 °F 94% 29.43 in 10.0 mi South 4.6 mph - N/A   Overcast
5:39 AM 55.4 °F - 51.8 °F 88% 29.42 in 10.0 mi South 8.1 mph - N/A   Scattered Clouds
6:00 AM 57.2 °F - 51.8 °F 82% 29.41 in 10.0 mi South 12.7 mph - N/A   Scattered Clouds
6:20 AM 59.0 °F - 51.8 °F 77% 29.40 in 10.0 mi South 13.8 mph 20.7 mph N/A   Mostly Cloudy
6:39 AM 60.8 °F - 50.0 °F 68% 29.39 in 10.0 mi South 16.1 mph 21.9 mph N/A   Overcast
7:00 AM 62.6 °F - 50.0 °F 63% 29.38 in 10.0 mi SSW 18.4 mph 23.0 mph N/A   Overcast
7:19 AM 62.6 °F - 51.8 °F 68% 29.38 in 10.0 mi SSW 16.1 mph 23.0 mph N/A Rain Light Rain
7:40 AM 64.4 °F - 51.8 °F 64% 29.37 in 10.0 mi SSW 18.4 mph 32.2 mph N/A   Light Drizzle
7:59 AM 64.4 °F - 51.8 °F 64% 29.36 in 10.0 mi SSW 13.8 mph 23.0 mph N/A   Overcast
8:20 AM 62.6 °F - 51.8 °F 68% 29.37 in 10.0 mi SSW 13.8 mph 21.9 mph N/A Rain Light Rain
8:40 AM 62.6 °F - 51.8 °F 68% 29.36 in 10.0 mi SSW 15.0 mph 23.0 mph N/A Rain Light Rain
9:00 AM 64.4 °F - 51.8 °F 64% 29.36 in 10.0 mi SSW 27.6 mph 43.7 mph N/A   Overcast
9:22 AM 64.4 °F - 51.8 °F 64% 29.36 in 10.0 mi SW 20.7 mph 32.2 mph N/A   Overcast
9:39 AM 64.4 °F - 51.8 °F 64% 29.36 in 10.0 mi SSW 25.3 mph 43.7 mph N/A   Overcast
10:01 AM 64.4 °F - 53.6 °F 68% 29.36 in 10.0 mi SW 34.5 mph 44.9 mph N/A   Overcast
10:19 AM 62.6 °F - 53.6 °F 72% 29.37 in 10.0 mi SW 24.2 mph 38.0 mph N/A Rain Light Rain
10:42 AM 64.4 °F - 53.6 °F 68% 29.37 in 10.0 mi SW 28.8 mph 38.0 mph N/A   Overcast
11:01 AM 64.4 °F - 53.6 °F 68% 29.39 in 10.0 mi SW 21.9 mph 33.4 mph N/A   Overcast
11:19 AM 62.6 °F - 53.6 °F 72% 29.40 in 10.0 mi WSW 23.0 mph 39.1 mph N/A   Overcast
11:41 AM 59.0 °F - 51.8 °F 77% 29.43 in 10.0 mi WSW 25.3 mph 41.4 mph N/A   Overcast
11:54 AM 57.9 °F - 49.3 °F 73% 29.45 in 10.0 mi WSW 39.1 mph 50.6 mph N/A   Overcast
11:57 AM 57.4 °F - 48.2 °F 71% 29.45 in 10.0 mi WSW 38.0 mph 52.9 mph N/A   Overcast
12:17 PM 56.7 °F - 47.5 °F 71% 29.47 in 10.0 mi WSW 24.2 mph 35.7 mph N/A   Overcast
12:37 PM 49.1 °F - 42.8 °F 79% 29.52 in 10.0 mi WNW 21.9 mph 33.4 mph N/A   Overcast
12:57 PM 46.4 °F 38.1 °F 41.0 °F 81% 29.53 in 10.0 mi WNW 24.2 mph 34.5 mph N/A   Overcast
1:17 PM 45.7 °F 38.8 °F 40.3 °F 81% 29.54 in 10.0 mi WNW 16.1 mph 25.3 mph N/A   Overcast
1:36 PM 46.9 °F - 41.0 °F 80% 29.55 in 10.0 mi WNW 13.8 mph 23.0 mph N/A   Overcast
1:57 PM 45.5 °F 38.6 °F 39.2 °F 79% 29.57 in 10.0 mi NW 16.1 mph 23.0 mph N/A   Overcast
2:17 PM 43.7 °F 36.9 °F 37.8 °F 80% 29.60 in 10.0 mi WNW 13.8 mph 18.4 mph N/A   Overcast
2:36 PM 43.9 °F 37.2 °F 37.2 °F 77% 29.62 in 10.0 mi WNW 13.8 mph 19.6 mph N/A   Overcast
2:57 PM 43.7 °F 37.7 °F 36.5 °F 76% 29.63 in 10.0 mi NW 11.5 mph 18.4 mph N/A   Overcast
3:17 PM 43.2 °F 36.2 °F 36.3 °F 77% 29.65 in 10.0 mi NW 13.8 mph 17.3 mph N/A   Overcast
3:37 PM 43.0 °F 35.7 °F 36.0 °F 76% 29.66 in 10.0 mi NW 15.0 mph 18.4 mph N/A   Overcast
3:57 PM 43.2 °F 37.0 °F 36.1 °F 76% 29.65 in 10.0 mi NW 11.5 mph - N/A   Overcast
4:17 PM 43.0 °F 36.8 °F 34.9 °F 73% 29.66 in 10.0 mi NW 11.5 mph - N/A   Overcast
4:37 PM 43.2 °F 36.6 °F 34.7 °F 72% 29.68 in 10.0 mi NW 12.7 mph - N/A   Overcast
4:57 PM 43.2 °F 36.6 °F 35.1 °F 73% 29.67 in 10.0 mi NNW 12.7 mph 16.1 mph N/A   Overcast
5:17 PM 43.0 °F 37.2 °F 35.2 °F 74% 29.68 in 10.0 mi NNW 10.4 mph - N/A   Overcast
5:37 PM 42.8 °F 37.0 °F 34.0 °F 71% 29.69 in 10.0 mi North 10.4 mph - N/A   Overcast
5:57 PM 42.8 °F 37.0 °F 33.6 °F 70% 29.70 in 10.0 mi NNW 10.4 mph - N/A   Overcast
6:17 PM 41.9 °F 36.9 °F 33.4 °F 72% 29.71 in 10.0 mi North 8.1 mph - N/A   Overcast
6:37 PM 41.4 °F 35.7 °F 33.8 °F 74% 29.72 in 10.0 mi North 9.2 mph - N/A   Overcast
6:57 PM 41.0 °F 35.2 °F 34.0 °F 76% 29.72 in 10.0 mi North 9.2 mph - N/A   Overcast
7:17 PM 40.1 °F 34.7 °F 33.6 °F 78% 29.73 in 10.0 mi North 8.1 mph - N/A   Overcast
7:37 PM 39.2 °F 32.0 °F 33.1 °F 79% 29.72 in 10.0 mi NNE 11.5 mph - N/A   Overcast
7:57 PM 37.4 °F 30.8 °F 32.9 °F 84% 29.73 in 10.0 mi NNE 9.2 mph - N/A   Overcast
8:12 PM 36.5 °F 29.7 °F 32.0 °F 84% 29.73 in 10.0 mi NE 9.2 mph - N/A   Overcast
8:39 PM 35.6 °F 27.1 °F 32.0 °F 87% 29.75 in 10.0 mi NNE 12.7 mph 16.1 mph N/A   Overcast
9:00 PM 35.6 °F 27.1 °F 30.2 °F 81% 29.76 in 10.0 mi NNE 12.7 mph 17.3 mph N/A   Overcast
9:20 PM 33.8 °F 25.3 °F 30.2 °F 87% 29.77 in 4.0 mi NNE 11.5 mph 17.3 mph N/A Snow Light Snow
9:42 PM 32.0 °F 22.5 °F 30.2 °F 93% 29.78 in 2.5 mi North 12.7 mph - N/A Snow Light Snow
10:01 PM 32.0 °F 22.1 °F 30.2 °F 93% 29.79 in 10.0 mi North 13.8 mph - N/A Snow Light Snow
10:20 PM 32.0 °F 21.6 °F 28.4 °F 87% 29.80 in 7.0 mi North 15.0 mph - N/A   Overcast
10:41 PM 30.2 °F 19.3 °F 28.4 °F 93% 29.81 in 2.0 mi North 15.0 mph 19.6 mph N/A Snow Light Snow
11:00 PM 30.2 °F 18.9 °F 28.4 °F 93% 29.81 in 1.2 mi North 16.1 mph 23.0 mph N/A Snow Light Snow
11:20 PM 30.2 °F 19.8 °F 26.6 °F 86% 29.80 in 5.0 mi North 13.8 mph 23.0 mph N/A Snow Light Snow
11:39 PM 30.2 °F 19.8 °F 26.6 °F 86% 29.82 in 10.0 mi North 13.8 mph 19.6 mph N/A   Overcast